Regional Weather Roundup
Issued by NWS

Home | Current Version | Previous Version | Text Only | Print | Product List | Glossary Off
Versions: 1 2 3 4 5 6 7 8 9 10 11 12 13 14 15 16 17 18 19 20 21 22 23 24 25 26 27 28 29 30 31 32 33 34 35 36 37 38 39 40 41 42 43 44 45 46 47 48 49 50

000
ASUS43 KDTX 251010
RWRMI
MICHIGAN HOURLY REGIONAL WEATHER ROUNDUP
NATIONAL WEATHER SERVICE DETROIT/PONTIAC MI
500 AM EST SAT NOV 25 2017

NOTE: "FAIR" INDICATES FEW OR NO CLOUDS BELOW 12,000 FEET WITH NO
SIGNIFICANT WEATHER AND/OR OBSTRUCTION TO VISIBILITY.

MIZ047>049-052>055-059>063-066>070-074>076-081>083-251100-
SOUTHEAST LOWER MICHIGAN

CITY           SKY/WX    TMP DP  RH WIND       PRES   REMARKS
ADRIAN         CLOUDY    47  36  65 W8        29.62R
ALMA           CLOUDY    46  44  93 NW9G17    29.59R
ANN ARBOR      CLOUDY    48  38  68 SW10      29.58R
BAD AXE        LGT RAIN  46  41  82 NW8G16    29.52R
CARO           CLOUDY    47  42  83 NW9       29.53R
DETROIT CITY   CLOUDY    47  34  60 W9        29.56R
DETROIT        CLOUDY    48  35  60 W12       29.58R
FLINT          CLOUDY    49  41  74 W13       29.56R
GROSSE ILE     CLOUDY    47  35  62 W10G16    29.58R
HILLSDALE      CLOUDY    46  37  71 W12G17    29.61R
HOWELL         CLOUDY    49  40  71 W9        29.57R

CITY           SKY/WX    TMP DP  RH WIND       PRES   REMARKS
JACKSON        MOCLDY    50  41  71 W10       29.61R
LAMBERTVILLE   CLOUDY    49  35  58 SW10G16   29.60R
LANSING        CLOUDY    49  46  90 W15       29.60R
LAPEER         RAIN      49  39  68 W8        29.54R
MASON          CLOUDY    50  44  79 W8        29.59R
MONROE         CLOUDY    48  35  59 W10G17    29.58R
MT. CLEMENS    CLOUDY    47  37  68 SW10      29.53R
PONTIAC        LGT RAIN  49  39  68 W14       29.55R
PORT HOPE        N/A     44  39  82 NW14G23   29.51R
PORT HURON     CLOUDY    46  34  61 SW5       29.54R
TRI CITIES     CLOUDY    48  44  86 NW10      29.56R
MIDLAND        CLOUDY    47  41  77 NW7       29.57R
TROY           CLOUDY    49  34  57 SW6       29.57R
SAGINAW HB     LGT RAIN  46  43  87 NW12G18   29.55R
$$
MIZ043>046-050>051-056>058-064>065-071>073-077>080-251100-
SOUTHWEST LOWER MICHIGAN

CITY           SKY/WX    TMP DP  RH WIND       PRES   REMARKS
BATTLE CREEK   CLOUDY    48  44  86 NW14G25   29.64R
BENTON HARBOR  PTCLDY    48  39  71 NW8G20    29.71R
BIG RAPIDS     CLOUDY    44  38  81 W7        29.59R
COLDWATER      CLOUDY    49  43  79 W10       29.64R
FREMONT        CLOUDY    44  39  82 NW12      29.63R
HOLLAND        CLOUDY    47  38  71 NW13G23   29.67R
GRAND RAPIDS   CLOUDY    48  42  80 NW18G24   29.63R
IONIA          CLOUDY    48  43  85 NW10G16   29.60R
KALAMAZOO      CLOUDY    48  39  71 NW22G33   29.66R
LUDINGTON      CLOUDY    43  36  74 NW7       29.63R
MARSHALL       CLOUDY    49  45  86 W14G22    29.62R
MOUNT PLEASANT CLOUDY    46  43  88 W5        29.58R
MUSKEGON       CLOUDY    47  38  71 NW12      29.66R
SOUTH HAVEN    MOCLDY    47  40  75 NW10G20   29.69R
$$
MIZ016>042-251100-
NORTHERN LOWER MICHIGAN

CITY           SKY/WX    TMP DP  RH WIND       PRES   REMARKS
ALPENA         LGT RAIN  43  41  93 NW18G30   29.53R
BEAVER ISLAND  CLEAR     40  31  69 W14G21    29.56R WCI  33
BELLAIRE       MIX PCPN  41  40  96 CALM      29.59R
CADILLAC       CLOUDY    40  36  86 NW10      29.57S WCI  33
CHARLEVOIX     MOCLDY    42  30  61 W16G24    29.60R
FRANKFORT      CLOUDY    44  32  62 NW6       29.62R
GAYLORD        CLOUDY    38  34  85 NW8       29.54R WCI  32
GRAYLING       MIX PCPN  40  37  88 NW10G17   29.56R WCI  34
HARBOR SPRINGS CLOUDY    40  34  79 W7        29.56R
HOUGHTON LAKE  LGT RAIN  41  39  93 NW8       29.56R
MANISTEE       CLOUDY    44  34  67 NW10      29.62R
OSCODA         CLOUDY    45  38  74 NW9       29.51R
ROGERS CITY    RAIN      40  36  86 NW16G29   29.54R WCI  32
TRAVERSE CITY  CLOUDY    43  33  68 NW15      29.59R
$$
MIZ007>008-015-251100-
EASTERN UPPER MICHIGAN

CITY           SKY/WX    TMP DP  RH WIND       PRES   REMARKS
KINROSS        CLEAR     34  32  92 W8        29.50R WCI  27
MACKINAC ISLAN CLOUDY    39  34  81 W8        29.53R WCI  34
NEWBERRY       CLOUDY    35  34  96 W5        29.51S WCI  31
S. S. MARIE    CLOUDY    41  30  65 NW13      29.48R
MUNISING         N/A     42  30  62 NW16G24   29.54R
$$
MIZ004>006-011>014-085-251100-
CENTRAL UPPER MICHIGAN

CITY           SKY/WX    TMP DP  RH WIND       PRES   REMARKS
MANISTIQUE     CLOUDY    35  30  81 W5        29.56R WCI  31
ESCANABA       CLOUDY    35  31  85 W5        29.59R WCI  31
MENOMINEE      CLOUDY    38  33  82 W7        29.64R WCI  33
SAWYER-GWINN   CLOUDY    36  31  83 W5        29.56R WCI  32
$$
MIZ001>003-009>011-084-251100-
WESTERN UPPER MICHIGAN

CITY           SKY/WX    TMP DP  RH WIND       PRES   REMARKS
IRON MOUNTAIN  CLOUDY    38  28  67 W8        29.58R WCI  32
HOUGHTON       LGT RAIN  35  29  78 NW16      29.57R WCI  25
COPPER HARBOR    N/A     38  29  70 N22G31    29.56R WCI  27
IRONWOOD       CLOUDY    33  21  61 NW21G32   29.68R WCI  21
$$

ABBREVIATIONS USED IN REMARKS
   TC - TEMPERATURE IN CELSIUS
  WCI - WIND CHILL INDEX
   HX - HEAT INDEX
  VSB - VISIBILITY





USA.gov is the U.S. government's official web portal to all federal, state and local government web resources and services.